ARIANE 3 DEB, 48348

Orbit data source: Space-Track

ARIANE 3 DEB, 48348 is space debris in HEO originally from a launch on Sat, 04 Aug 1984 UTC launched from the French Guiana (FRGUI). Debris objects in space refer to the collection of defunct objects orbiting the Earth. Examples of debris include non-operational satellites, rocket bodies, and fragments generated from explosions, collisions, or faulty payload assembly.

Loading next visibility...
Identifier
48348, 1984-081H
Orbit
HEO
Country
Flag of FRFR
Related business
Manufacturer
Unknown
Mission
Spacecraft
Bus & Motor
Unknown
Mass
Unknown
Launch date (UTC)
1984-08-04 (42 years ago)
Launch vehicle
Unknown
Launch site
French Guiana (FRGUI)
Object type
Payload
Rocket body
Debris
Shape & HBR
Unknown shape, 1.1 m
Radar Cross Section
Medium (>0.1 m² and <1 m²)

Expand to show TLE details & history
Last TLE update: 10 months ago

TLE from 10 months ago
0 ARIANE 3 DEB
1 48348U 84081H   25230.18725113 -.00000279  00000-0  00000-0 0  9997
2 48348   8.0271 335.7495 7137578  23.1377 357.0605  2.08251415 89904
Epoch: 2025-08-18T04:29Z
TLE epoch observation values (Epoch: 2025-08-18T04:29:38.497Z)
Latitude
-0.00004°
Longitude
-58.41595°
Altitude
1,284.151 km
Speed
9.415 km/s
True Right ascension
22h 23m 10s
True Declination
0° 00' 00"
Sunlit
Object was in full shadow at epoch
Visualization orbit readout
Latitude
Unknown
Longitude
Unknown
Altitude
Unknown
Speed
Unknown
Apparent Right ascension
Unknown
Apparent Declination
Unknown
Sunlit
N/A
Visualization observer readout
Local Sidereal Time
21:35:38
Azimuth
Unknown
Elevation
Unknown
Doppler factor
Unknown
Orbital elements
Apogee altitude
38,020.891 km
Perigee altitude
1,037.657 km
Semi-major axis
25,907.411 km
Eccentricity
0.71376
Inclination
8.0271°
RAAN
335.7495°
Arg. of periapsis
23.1377°
True anomaly
335.50971°
Mean anomaly
357.0605°
Eccentric anomaly
349.86241°
Mean motion
0.52048 °/min
Orbital period
691.66 mins
BSTAR
0
Loading maneuver chart data...
Computing Atmospheric mass density...
Loading historical data...
Loading historical data...
Loading historical data...
Loading historical data...
Loading historical data...
Loading historical data...
Loading historical data...

Documentation

Showing up to 5 results
|